Weather History for Windom, MN

Change the Weather History Date:

Thursday, February 6, 2014

  Actual Average Record
Temperature  
Mean Temperature -5 °F -  
Max Temperature 3 °F 24 °F 51 °F (2002)
Min Temperature -13 °F 4 °F -19 °F (1978)
Degree Days  
Heating Degree Days 70    
Moisture  
Dew Point -11 °F    
Average Humidity 74    
Maximum Humidity 84    
Minimum Humidity 66    
Precipitation  
Precipitation 0.00 in - - ()
Sea Level Pressure  
Sea Level Pressure 30.35 in    
Wind  
Wind Speed 11 mph (WSW)    
Max Wind Speed 22 mph    
Max Gust Speed 24 mph    
Visibility 10 miles    
Events      
Averages and records for this station are not official NWS values.
T = Trace of Precipitation, MM = Missing Value Source: NWS Daily Summary

Daily Weather History Graph

Daily Weather History Graph

Search for Another Location

Airport:

Trip Planner

Search our weather history database for the weather conditions in past years. The results will help you decide how hot, cold, wet, or windy it might be!

Date:

Astronomy

Feb. 06, 2014 Rise Set
Actual Time 7:31 AM CST 5:38 PM CST
Civil Twilight 7:01 AM CST 6:08 PM CST
Nautical Twilight 6:27 AM CST 6:42 PM CST
Astronomical Twilight 5:53 AM CST 7:16 PM CST
Moon 11:09 AM CST (2/6) 12:48 AM CST (2/6)
Length of Visible Light 11h 06m
Length of Day
10h 06m
Waxing Crescent, 49% of the Moon is Illuminated
Feb 6
Waxing Crescent
Feb 6
First Quarter
Feb 14
Full
Feb 22
Last Quarter
Mar 1
New

Hourly Weather History & Observations

Time (CST) Temp. Windchill Dew Point Humidity Pressure Visibility Wind Dir Wind Speed Gust Speed Precip Events Conditions
12:12 AM -11.2 °F -24.8 °F -14.8 °F 84% 30.48 in 10.0 mi West 5.8 mph - N/A   Clear
12:32 AM -9.4 °F -24.3 °F -14.8 °F 77% 30.47 in 10.0 mi West 6.9 mph - N/A   Clear
12:53 AM -9.4 °F -24.3 °F -14.8 °F 77% 30.47 in 10.0 mi West 6.9 mph - N/A   Clear
1:12 AM -9.4 °F -25.6 °F -14.8 °F 77% 30.46 in 10.0 mi West 8.1 mph - N/A   Clear
1:32 AM -9.4 °F -24.3 °F -14.8 °F 77% 30.46 in 10.0 mi West 6.9 mph - N/A   Clear
1:53 AM -11.2 °F -29.0 °F -16.6 °F 77% 30.46 in 10.0 mi West 9.2 mph - N/A   Clear
2:12 AM -11.2 °F -27.8 °F -16.6 °F 77% 30.46 in 10.0 mi West 8.1 mph - N/A   Clear
2:32 AM -11.2 °F -26.4 °F -16.6 °F 77% 30.46 in 10.0 mi West 6.9 mph - N/A   Clear
2:53 AM -11.2 °F -29.0 °F -16.6 °F 77% 30.45 in 10.0 mi West 9.2 mph - N/A   Clear
3:12 AM -11.2 °F -27.8 °F -16.6 °F 77% 30.45 in 10.0 mi West 8.1 mph - N/A   Clear
3:32 AM -11.2 °F -26.4 °F -16.6 °F 77% 30.44 in 10.0 mi West 6.9 mph - N/A   Clear
3:53 AM -11.2 °F -27.8 °F -16.6 °F 77% 30.44 in 10.0 mi WSW 8.1 mph - N/A   Clear
4:12 AM -11.2 °F -29.0 °F -16.6 °F 77% 30.43 in 10.0 mi West 9.2 mph - N/A   Clear
4:32 AM -11.2 °F -27.8 °F -16.6 °F 77% 30.44 in 10.0 mi WSW 8.1 mph - N/A   Clear
4:53 AM -11.2 °F -27.8 °F -16.6 °F 77% 30.44 in 10.0 mi WSW 8.1 mph - N/A   Clear
5:12 AM -13.0 °F -30.0 °F -18.4 °F 77% 30.43 in 10.0 mi WSW 8.1 mph - N/A   Clear
5:32 AM -13.0 °F -30.0 °F -18.4 °F 77% 30.43 in 10.0 mi WSW 8.1 mph - N/A   Clear
5:53 AM -13.0 °F -27.0 °F -18.4 °F 77% 30.43 in 10.0 mi WSW 5.8 mph - N/A   Clear
6:12 AM -13.0 °F -27.0 °F -18.4 °F 77% 30.42 in 10.0 mi WSW 5.8 mph - N/A   Clear
6:32 AM -13.0 °F -27.0 °F -18.4 °F 77% 30.42 in 10.0 mi West 5.8 mph - N/A   Clear
6:53 AM -13.0 °F -28.6 °F -18.4 °F 77% 30.41 in 10.0 mi West 6.9 mph - N/A   Clear
7:12 AM -11.2 °F -27.8 °F -16.6 °F 77% 30.41 in 10.0 mi West 8.1 mph - N/A   Clear
7:32 AM -11.2 °F -29.0 °F -16.6 °F 77% 30.41 in 10.0 mi WSW 9.2 mph - N/A   Clear
7:53 AM -13.0 °F -32.4 °F -18.4 °F 77% 30.41 in 10.0 mi WSW 10.4 mph - N/A   Clear
8:12 AM -11.2 °F -26.4 °F -16.6 °F 77% 30.41 in 10.0 mi WSW 6.9 mph - N/A   Clear
8:32 AM -9.4 °F -28.9 °F -16.6 °F 71% 30.41 in 10.0 mi WSW 11.5 mph - N/A   Clear
8:53 AM -9.4 °F -27.9 °F -14.8 °F 77% 30.41 in 10.0 mi WSW 10.4 mph - N/A   Clear
9:12 AM -7.6 °F -26.6 °F -14.8 °F 71% 30.41 in 10.0 mi WSW 11.5 mph - N/A   Clear
9:32 AM -7.6 °F -25.7 °F -14.8 °F 71% 30.40 in 10.0 mi WSW 10.4 mph - N/A   Clear
9:53 AM -5.8 °F -25.2 °F -13.0 °F 71% 30.40 in 10.0 mi WSW 12.7 mph - N/A   Clear
10:12 AM -4.0 °F -23.7 °F -11.2 °F 71% 30.40 in 10.0 mi West 13.8 mph - N/A   Clear
10:32 AM -2.2 °F -23.5 °F -9.4 °F 71% 30.40 in 10.0 mi West 17.3 mph - N/A   Clear
10:53 AM -2.2 °F -22.2 °F -9.4 °F 71% 30.41 in 10.0 mi WSW 15.0 mph - N/A   Clear
11:12 AM -2.2 °F -22.9 °F -9.4 °F 71% 30.40 in 10.0 mi WSW 16.1 mph - N/A   Clear
11:32 AM -2.2 °F -24.1 °F -9.4 °F 71% 30.40 in 10.0 mi WSW 18.4 mph - N/A   Clear
11:53 AM -0.4 °F -22.3 °F -7.6 °F 72% 30.38 in 10.0 mi WSW 19.6 mph - N/A   Clear
12:12 PM -0.4 °F -22.3 °F -7.6 °F 72% 30.37 in 10.0 mi West 19.6 mph - N/A   Clear
12:32 PM 1.4 °F -20.5 °F -5.8 °F 72% 30.37 in 10.0 mi WSW 20.7 mph - N/A   Clear
12:53 PM 1.4 °F -19.9 °F -5.8 °F 72% 30.35 in 10.0 mi West 19.6 mph 23.0 mph N/A   Clear
1:13 PM 1.4 °F -19.9 °F -5.8 °F 72% 30.34 in 10.0 mi West 19.6 mph - N/A   Clear
1:32 PM 1.4 °F -20.5 °F -5.8 °F 72% 30.33 in 10.0 mi WSW 20.7 mph - N/A   Clear
1:53 PM 1.4 °F -19.9 °F -5.8 °F 72% 30.32 in 10.0 mi WSW 19.6 mph - N/A   Clear
2:13 PM 1.4 °F -21.0 °F -5.8 °F 72% 30.31 in 10.0 mi West 21.9 mph - N/A   Clear
2:32 PM 3.2 °F -17.6 °F -5.8 °F 66% 30.31 in 10.0 mi WSW 19.6 mph 24.2 mph N/A   Clear
2:53 PM 3.2 °F -17.1 °F -4.0 °F 72% 30.30 in 10.0 mi WSW 18.4 mph - N/A   Clear
3:13 PM 3.2 °F -17.1 °F -4.0 °F 72% 30.30 in 10.0 mi WSW 18.4 mph - N/A   Clear
3:32 PM 3.2 °F -16.5 °F -4.0 °F 72% 30.30 in 10.0 mi WSW 17.3 mph - N/A   Clear
3:52 PM 3.2 °F -17.1 °F -4.0 °F 72% 30.29 in 10.0 mi WSW 18.4 mph - N/A   Clear
4:13 PM 3.2 °F -18.1 °F -4.0 °F 72% 30.28 in 10.0 mi WSW 20.7 mph - N/A   Clear
4:32 PM 3.2 °F -17.6 °F -4.0 °F 72% 30.28 in 10.0 mi WSW 19.6 mph - N/A   Clear
4:52 PM 3.2 °F -16.5 °F -4.0 °F 72% 30.27 in 10.0 mi WSW 17.3 mph 24.2 mph N/A   Scattered Clouds
5:12 PM 3.2 °F -16.5 °F -5.8 °F 66% 30.27 in 10.0 mi WSW 17.3 mph - N/A   Clear
5:32 PM 1.4 °F -16.1 °F -5.8 °F 72% 30.27 in 10.0 mi WSW 12.7 mph - N/A   Scattered Clouds
5:53 PM 1.4 °F -15.3 °F -5.8 °F 72% 30.26 in 10.0 mi WSW 11.5 mph - N/A   Clear
6:12 PM 1.4 °F -16.9 °F -5.8 °F 72% 30.26 in 10.0 mi WSW 13.8 mph - N/A   Scattered Clouds
6:32 PM 1.4 °F -15.3 °F -5.8 °F 72% 30.26 in 10.0 mi WSW 11.5 mph - N/A   Scattered Clouds
6:53 PM -0.4 °F -17.6 °F -5.8 °F 78% 30.26 in 10.0 mi WSW 11.5 mph - N/A   Clear
7:12 PM -0.4 °F -18.4 °F -5.8 °F 78% 30.25 in 10.0 mi WSW 12.7 mph - N/A   Clear
7:32 PM -0.4 °F -17.6 °F -5.8 °F 78% 30.25 in 10.0 mi WSW 11.5 mph - N/A   Clear
7:53 PM -2.2 °F -19.9 °F -7.6 °F 78% 30.25 in 10.0 mi WSW 11.5 mph - N/A   Clear
8:12 PM -0.4 °F -16.7 °F -7.6 °F 72% 30.25 in 10.0 mi WSW 10.4 mph - N/A   Clear
8:32 PM -0.4 °F -16.7 °F -7.6 °F 72% 30.24 in 10.0 mi WSW 10.4 mph - N/A   Clear
8:53 PM -2.2 °F -18.9 °F -7.6 °F 78% 30.24 in 10.0 mi WSW 10.4 mph - N/A   Clear
9:12 PM -2.2 °F -18.9 °F -7.6 °F 78% 30.24 in 10.0 mi WSW 10.4 mph - N/A   Clear
9:32 PM -2.2 °F -20.7 °F -7.6 °F 78% 30.24 in 10.0 mi WSW 12.7 mph - N/A   Clear
9:53 PM -2.2 °F -19.9 °F -7.6 °F 78% 30.24 in 10.0 mi WSW 11.5 mph - N/A   Clear
10:12 PM -2.2 °F -20.7 °F -9.4 °F 71% 30.24 in 10.0 mi WSW 12.7 mph - N/A   Clear
10:32 PM -2.2 °F -20.7 °F -9.4 °F 71% 30.24 in 10.0 mi WSW 12.7 mph - N/A   Clear
10:53 PM -2.2 °F -19.9 °F -9.4 °F 71% 30.24 in 10.0 mi WSW 11.5 mph - N/A   Clear
11:12 PM -2.2 °F -20.7 °F -9.4 °F 71% 30.24 in 10.0 mi WSW 12.7 mph - N/A   Clear
11:32 PM -2.2 °F -20.7 °F -9.4 °F 71% 30.23 in 10.0 mi WSW 12.7 mph - N/A   Clear
11:53 PM -4.0 °F -21.2 °F -9.4 °F 78% 30.22 in 10.0 mi WSW 10.4 mph - N/A   Clear